TimeCST,TemperatureF,Dew PointF,Humidity,Sea Level PressureIn,VisibilityMPH,Wind Direction,Wind SpeedMPH,Gust SpeedMPH,PrecipitationIn,Events,Conditions,WindDirDegrees,DateUTC
12:52 AM,30.0,26.1,85,30.11,6.0,SSE,6.9,-,N/A,,Mostly Cloudy,150,2013-02-10 06:52:00
1:52 AM,30.0,26.1,85,30.10,5.0,SSE,3.5,-,N/A,,Mostly Cloudy,160,2013-02-10 07:52:00
2:52 AM,28.0,25.0,88,30.07,4.0,SSE,4.6,-,N/A,,Mostly Cloudy,150,2013-02-10 08:52:00
3:52 AM,28.9,25.0,85,30.03,6.0,SSE,6.9,-,N/A,,Scattered Clouds,160,2013-02-10 09:52:00
4:52 AM,30.0,25.0,82,30.03,7.0,Calm,Calm,-,N/A,,Scattered Clouds,0,2013-02-10 10:52:00
5:42 AM,32.0,26.6,80,29.99,8.0,SE,9.2,-,N/A,,Overcast,140,2013-02-10 11:42:00
5:52 AM,33.1,27.0,78,30.01,8.0,SSE,9.2,-,0.00,,Overcast,150,2013-02-10 11:52:00
6:30 AM,33.8,28.4,81,29.96,9.0,SE,10.4,-,0.00,,Overcast,140,2013-02-10 12:30:00
6:52 AM,34.0,28.0,79,29.98,9.0,SSE,12.7,-,0.00,,Overcast,150,2013-02-10 12:52:00
7:52 AM,34.0,28.9,82,29.94,7.0,SE,11.5,-,0.00,,Scattered Clouds,140,2013-02-10 13:52:00
8:17 AM,35.6,30.2,81,29.91,8.0,SE,13.8,-,N/A,,Mostly Cloudy,140,2013-02-10 14:17:00
8:52 AM,35.1,30.9,85,29.94,7.0,SSE,11.5,-,N/A,,Overcast,150,2013-02-10 14:52:00
9:10 AM,35.6,32.0,87,29.89,6.0,SSE,11.5,-,0.00,Rain,Light Rain,150,2013-02-10 15:10:00
9:25 AM,35.6,32.0,87,29.89,6.0,SSE,15.0,-,0.00,,Overcast,150,2013-02-10 15:25:00
9:43 AM,35.6,33.8,93,29.87,6.0,SE,16.1,-,0.00,Rain,Light Rain,140,2013-02-10 15:43:00
9:50 AM,35.6,33.8,93,29.87,6.0,SE,17.3,-,0.00,Rain,Light Rain,140,2013-02-10 15:50:00
9:52 AM,36.0,33.1,89,29.89,6.0,SSE,16.1,-,0.00,Rain,Light Rain,150,2013-02-10 15:52:00
10:11 AM,35.6,33.8,93,29.85,6.0,SE,15.0,21.9,0.00,,Overcast,140,2013-02-10 16:11:00
10:52 AM,35.1,33.1,92,29.86,5.0,SE,15.0,-,0.00,Rain,Light Rain,140,2013-02-10 16:52:00
11:09 AM,35.6,33.8,93,29.80,2.5,SE,18.4,24.2,0.01,Rain,Rain,140,2013-02-10 17:09:00
11:52 AM,35.1,34.0,96,29.78,2.5,SE,17.3,27.6,0.07,Rain,Light Rain,140,2013-02-10 17:52:00
12:52 PM,35.1,34.0,96,29.71,1.8,SE,21.9,28.8,0.12,Rain,Rain,140,2013-02-10 18:52:00
1:07 PM,35.6,35.6,100,29.67,2.5,SSE,21.9,25.3,0.01,Rain,Light Rain,150,2013-02-10 19:07:00
1:28 PM,35.6,35.6,100,29.65,4.0,SE,18.4,26.5,0.02,Rain,Light Rain,140,2013-02-10 19:28:00
1:52 PM,36.0,35.1,97,29.65,5.0,SSE,18.4,-,0.02,Rain,Light Rain,150,2013-02-10 19:52:00
2:09 PM,35.6,35.6,100,29.60,2.5,SE,18.4,27.6,0.01,Rain,Light Rain,140,2013-02-10 20:09:00
2:17 PM,35.6,35.6,100,29.60,4.0,SSE,17.3,26.5,0.01,Rain,Light Rain,150,2013-02-10 20:17:00
2:52 PM,37.0,36.0,96,29.58,3.0,SSE,20.7,29.9,0.04,Rain,Light Rain,150,2013-02-10 20:52:00
3:20 PM,37.4,37.4,100,29.56,2.0,SSE,18.4,-,0.02,Rain,Light Rain,160,2013-02-10 21:20:00
3:29 PM,37.4,37.4,100,29.55,1.5,SSE,19.6,26.5,0.03,Snow,Light Snow,160,2013-02-10 21:29:00
3:52 PM,39.0,37.0,93,29.56,2.5,SSE,20.7,-,0.04,Rain,Light Rain,160,2013-02-10 21:52:00
4:05 PM,39.2,37.4,93,29.53,5.0,SSE,21.9,-,0.00,,Overcast,160,2013-02-10 22:05:00
4:31 PM,39.2,37.4,93,29.52,1.8,South,15.0,-,0.00,,Light Drizzle,170,2013-02-10 22:31:00
4:52 PM,39.0,37.9,96,29.55,1.0,South,12.7,-,0.02,Rain,Light Rain,170,2013-02-10 22:52:00
5:16 PM,39.2,37.4,93,29.51,2.0,SSE,17.3,-,0.01,Rain,Light Rain,160,2013-02-10 23:16:00
5:52 PM,39.0,37.9,96,29.52,3.0,SSE,12.7,-,0.03,Rain,Light Rain,160,2013-02-10 23:52:00
6:44 PM,39.2,39.2,100,29.49,3.0,South,11.5,-,0.00,,Overcast,170,2013-02-11 00:44:00
6:52 PM,39.0,39.0,100,29.51,2.5,South,9.2,-,0.00,,Overcast,170,2013-02-11 00:52:00
7:10 PM,39.2,39.2,100,29.49,2.5,South,9.2,-,N/A,,Overcast,180,2013-02-11 01:10:00
7:18 PM,39.2,39.2,100,29.48,4.0,South,6.9,-,N/A,,Overcast,180,2013-02-11 01:18:00
7:37 PM,42.8,39.2,87,29.47,7.0,South,12.7,-,N/A,,Overcast,180,2013-02-11 01:37:00
7:52 PM,42.1,39.9,92,29.48,8.0,South,12.7,-,N/A,,Mostly Cloudy,170,2013-02-11 01:52:00
7:59 PM,42.8,39.2,87,29.46,8.0,South,13.8,-,N/A,,Mostly Cloudy,170,2013-02-11 01:59:00
8:52 PM,42.1,41.0,96,29.47,8.0,South,9.2,-,N/A,,Overcast,190,2013-02-11 02:52:00
9:52 PM,42.1,39.9,92,29.47,10.0,SSW,10.4,-,N/A,,Mostly Cloudy,200,2013-02-11 03:52:00
10:16 PM,42.8,39.2,87,29.44,10.0,SSW,15.0,21.9,N/A,,Scattered Clouds,210,2013-02-11 04:16:00
10:52 PM,43.0,37.9,82,29.45,10.0,SSW,13.8,23.0,N/A,,Partly Cloudy,210,2013-02-11 04:52:00
11:52 PM,39.9,35.1,83,29.45,10.0,SW,15.0,23.0,N/A,,Mostly Cloudy,230,2013-02-11 05:52:00